Location: Sawmill Trailhead
(33.5800°N, 116.4497°W)
Time: 06:24:57
(UTC-07:00)

Uosat F - Visible Passes

Search period start: 22 July 2014 00:00
Search period end: 01 August 2014 00:00
Orbit: 752 x 762 km, 98.7° (Epoch: 21 July)

Date Brightness Start Highest point End Pass type
(mag) Time Alt. Az. Time Alt. Az. Time Alt. Az.
22 Jul 11.1 05:02:58 10° NNE 05:08:00 87° ESE 05:13:01 10° SSW visible
23 Jul 12.6 04:24:20 10° NE 04:28:51 33° E 04:33:19 10° SSE visible
24 Jul 13.7 03:47:21 10° ENE 03:49:29 13° E 03:51:36 10° ESE visible
25 Jul 11.8 04:44:35 10° NNE 04:49:31 55° E 04:54:24 10° S visible
26 Jul 13.3 04:06:29 10° NE 04:10:15 21° E 04:13:59 10° SE visible
27 Jul 11.1 05:05:05 10° NNE 05:10:07 90° ESE 05:15:07 10° SSW visible
28 Jul 12.6 04:26:25 10° NNE 04:30:58 34° E 04:35:29 10° SSE visible
29 Jul 13.7 03:49:18 10° ENE 03:51:36 13° E 03:53:54 10° ESE visible
29 Jul 11.3 05:25:47 10° N 05:30:40 55° WNW 05:35:32 10° SSW visible
30 Jul 11.7 04:46:41 10° NNE 04:51:38 57° E 04:56:31 10° S visible
31 Jul 13.3 04:08:32 10° NE 04:12:22 22° E 04:16:11 10° SE visible
